{"data":{"norad_id":84006,"epoch":"2026-05-15T03:36:53.057376Z","epoch_age_seconds":936191,"freshness":"AGED","line1":"1 84006U          26135.15061409  .00000003  00000+0  00000+0 0  9992","line2":"2 84006  22.4641 146.0485 6168121 114.5640 319.8352  2.16230043 87549","mean_motion":2.16230043,"eccentricity":0.6168121,"inclination_deg":22.4641,"raan_deg":146.0485,"arg_perigee_deg":114.564,"mean_anomaly_deg":319.8352,"bstar":0,"rev_number":8754,"period_min":665.95741277266,"perigee_km":3301.7347880232,"apogee_km":34464.838034766,"semimajor_km":25261.423411395,"source":"CELESTRAK","updated_at":"2026-05-25T13:38:11.425775Z"}}